Home   Weather   Canterbury   Past weeks

Flag for United Kingdom Past Weather in Canterbury, England, United Kingdom — Yesterday and Last 2 Weeks

Now
63 °F

Mild.


Feels Like: 63 °F
Forecast: 58 / 66 °F
Wind: 12 mph from South

Location: Manston

Current Time: Sep 26, 2016 at 6:30:56 PM

Latest Report: Sep 26, 2016 at 5:00 PM


Visibility: 13 mi

Pressure: 30.20 "Hg

Humidity: 66%

Dew Point: 51 °F

Location of CanterburyLocation

Past Weather in Canterbury — Graph

°F

Canterbury Temperature Yesterday

Maximum temperature yesterday: 68 °F (at 4:00 PM)
Minimum temperature yesterday: 53 °F (at 11:00 PM)
Average temperature yesterday: 63 °F

High & Low Weather Summary for the Past Weeks

 TemperatureHumidityPressure
High87 °F (Sep 13, 4:00 PM)100% (Sep 21, 8:00 AM)30.30 "Hg (Sep 21, 8:00 AM)
Low50 °F (Sep 26, 5:00 AM)42% (Sep 14, 5:00 PM)29.78 "Hg (Sep 14, 5:00 AM)
Average64 °F79%30.03 "Hg
* Reported Sep 11 5:00 PM — Sep 26 5:00 PM, Canterbury, Weather by CustomWeather, © 2016

Note: Actual official high and low records may vary slightly from our data, if they occured in-between our weather recording intervals... More about our weather records

Advertising

Canterbury Weather History for the Previous 24 Hours

Scroll right to see more
 ConditionsComfort  
Time TempWeatherWind HumidityBarometerVisibility
5:00 PM
Mon, Sep 26
63 °FMild.12 mph66%30.20 "Hg12 mi
4:00 PM63 °FMild.13 mph66%30.20 "Hg17 mi
3:00 PM64 °FMild.13 mph61%30.20 "Hg22 mi
2:00 PM65 °FMild.10 mph59%30.20 "Hg12 mi
1:00 PM62 °FCool.10 mph73%30.21 "Hg11 mi
12:00 PM62 °FCool.10 mph67%30.21 "Hg25 mi
11:00 AM60 °FCool.9 mph78%30.22 "Hg9 mi
10:00 AM59 °FCool.6 mph80%30.22 "Hg16 mi
9:00 AM55 °FCool.5 mph87%30.21 "Hg12 mi
8:00 AM54 °FCool.10 mph86%30.21 "Hg7 mi
7:00 AM53 °FCool.6 mph87%30.21 "Hg12 mi
6:00 AM51 °FCool.6 mph88%30.21 "Hg11 mi
5:00 AM50 °FCool.5 mph88%30.21 "Hg12 mi
4:00 AM51 °FCool.7 mph89%30.21 "Hg12 mi
3:00 AM51 °FCool.8 mph90%30.21 "Hg11 mi
2:00 AM52 °FCool.8 mph88%30.20 "Hg11 mi
1:00 AM53 °FCool.10 mph87%30.19 "Hg13 mi
12:00 AM53 °FCool.8 mph86%30.18 "Hg12 mi
11:00 PM
Sun, Sep 25
53 °FCool.8 mph85%30.17 "Hg10 mi
10:00 PM54 °FCool.8 mph82%30.16 "Hg10 mi
9:00 PM55 °FCool.7 mph79%30.15 "Hg12 mi
8:00 PM56 °FCool.8 mph74%30.13 "Hg11 mi
7:00 PM60 °FCool.9 mph66%30.10 "Hg12 mi
6:00 PM64 °FMild.15 mph51%30.08 "Hg22 mi
Weather by CustomWeather, © 2016

See weather overviewHow to use our weather pages